| time (UTC) | temp F | wind direction | speed knots | gust knots | rain 1hr in | rain 24hr in | rain mn in | humidity % | barometer mb |
| 20260506094525 | 48 | 114 | 1.7 | 5.2 | 0.00 | 0.00 | 0.00 | 60 | 1013.3 |
| 20260506093603 | 47 | 113 | 1.7 | 7.8 | 0.00 | 0.00 | 0.00 | 60 | 1013.1 |
| 20260506092703 | 47 | 108 | 2.6 | 7.0 | 0.00 | 0.00 | 0.00 | 61 | 1013.4 |
| 20260506091803 | 47 | 92 | 2.6 | 7.0 | 0.00 | 0.00 | 0.00 | 59 | 1013.2 |
| 20260506090925 | 47 | 108 | 1.7 | 7.0 | 0.00 | 0.00 | 0.00 | 61 | 1013.6 |
| 20260506090004 | 46 | 143 | 1.7 | 7.0 | 0.00 | 0.00 | 0.00 | 64 | 1013.6 |
| 20260506085404 | 45 | 117 | 1.7 | 6.1 | 0.00 | 0.00 | 0.00 | 64 | 1013.6 |
| 20260506084504 | 45 | 174 | 1.7 | 3.5 | 0.00 | 0.00 | 0.00 | 65 | 1013.7 |
| 20260506083605 | 44 | 154 | 1.7 | 5.2 | 0.00 | 0.00 | 0.00 | 66 | 1013.7 |
| 20260506082704 | 44 | 87 | 1.7 | 5.2 | 0.00 | 0.00 | 0.00 | 67 | 1013.8 |
| 20260506081805 | 44 | 73 | 1.7 | 5.2 | 0.00 | 0.00 | 0.00 | 68 | 1013.6 |
| 20260506080905 | 44 | 68 | 1.7 | 7.8 | 0.00 | 0.00 | 0.00 | 66 | 1013.6 |
| 20260506072703 | 44 | 82 | 1.7 | 6.1 | 0.00 | 0.00 | 0.00 | 69 | 1013.7 |
| 20260506071804 | 44 | 67 | 0.9 | 6.1 | 0.00 | 0.00 | 0.00 | 71 | 1013.5 |
| 20260506070905 | 44 | 33 | 1.7 | 6.1 | 0.00 | 0.00 | 0.00 | 69 | 1013.6 |
| 20260506061803 | 42 | 42 | 1.7 | 5.2 | 0.00 | 0.00 | 0.00 | 72 | 1013.7 |
| 20260506060904 | 42 | 32 | 0.9 | 3.5 | 0.00 | 0.00 | 0.00 | 72 | 1013.5 |
| 20260506050904 | 41 | 337 | 0.9 | 2.6 | 0.00 | 0.00 | 0.00 | 75 | 1013.6 |
| 20260506044503 | 41 | 338 | 0.9 | 2.6 | 0.00 | 0.00 | 0.00 | 75 | 1013.5 |
| 20260506043604 | 41 | 333 | 0.9 | 2.6 | 0.00 | 0.00 | 0.00 | 75 | 1013.6 |
| 20260506042704 | 41 | 335 | 0.9 | 2.6 | 0.00 | 0.00 | 0.00 | 74 | 1013.6 |
| 20260506041804 | 41 | 346 | 0.0 | 1.7 | 0.00 | 0.00 | 0.00 | 74 | 1013.8 |
| 20260506040904 | 41 | 345 | 0.9 | 1.7 | 0.00 | 0.00 | 0.00 | 73 | 1013.8 |
| 20260506040024 | 41 | 344 | 0.0 | 1.7 | 0.00 | 0.00 | 0.00 | 73 | 1013.7 |
| 20260506035404 | 42 | 342 | 0.0 | 1.7 | 0.00 | 0.00 | 0.00 | 73 | 1013.6 |
| 20260506034504 | 41 | 348 | 0.9 | 3.5 | 0.00 | 0.00 | 0.00 | 73 | 1013.8 |
| 20260506033624 | 42 | 346 | 0.9 | 2.6 | 0.00 | 0.00 | 0.00 | 72 | 1013.7 |
| 20260506032705 | 42 | 337 | 0.9 | 3.5 | 0.00 | 0.00 | 0.00 | 72 | 1013.7 |
| 20260506031804 | 42 | 344 | 1.7 | 6.1 | 0.00 | 0.00 | 0.00 | 72 | 1013.6 |
| 20260506030903 | 42 | 27 | 1.7 | 5.2 | 0.00 | 0.00 | 0.00 | 72 | 1013.9 |
| 20260506030004 | 42 | 4 | 1.7 | 5.2 | 0.00 | 0.00 | 0.00 | 72 | 1014.0 |
| 20260506025403 | 42 | 350 | 0.9 | 2.6 | 0.00 | 0.00 | 0.00 | 72 | 1013.9 |
| 20260506024503 | 42 | 360 | 0.9 | 2.6 | 0.00 | 0.00 | 0.00 | 72 | 1013.9 |
| 20260506023603 | 42 | 1 | 0.9 | 3.5 | 0.00 | 0.00 | 0.00 | 72 | 1013.9 |
| 20260506022703 | 42 | 342 | 0.9 | 5.2 | 0.00 | 0.00 | 0.00 | 72 | 1013.9 |
| 20260506021804 | 42 | 351 | 0.9 | 2.6 | 0.00 | 0.00 | 0.00 | 73 | 1013.9 |
| 20260506020903 | 42 | 333 | 0.9 | 3.5 | 0.00 | 0.00 | 0.00 | 72 | 1013.8 |
| 20260506020004 | 42 | 339 | 0.9 | 2.6 | 0.00 | 0.00 | 0.00 | 72 | 1013.9 |
| 20260506015404 | 42 | 338 | 0.9 | 2.6 | 0.00 | 0.00 | 0.00 | 72 | 1013.9 |
| 20260506014503 | 42 | 352 | 0.9 | 3.5 | 0.00 | 0.00 | 0.00 | 72 | 1013.9 |
| 20260506013603 | 43 | 14 | 1.7 | 5.2 | 0.00 | 0.00 | 0.00 | 71 | 1014.1 |
| 20260506012703 | 43 | 1 | 1.7 | 3.5 | 0.00 | 0.00 | 0.00 | 71 | 1014.2 |
| 20260506011804 | 43 | 10 | 1.7 | 8.7 | 0.00 | 0.00 | 0.00 | 71 | 1014.0 |
| 20260506010904 | 43 | 11 | 1.7 | 8.7 | 0.00 | 0.00 | 0.00 | 72 | 1014.0 |
| 20260506010004 | 43 | 9 | 0.9 | 2.6 | 0.00 | 0.00 | 0.00 | 73 | 1014.1 |
| 20260506005403 | 43 | 359 | 0.9 | 2.6 | 0.00 | 0.00 | 0.00 | 73 | 1014.3 |
| 20260506004505 | 43 | 8 | 0.9 | 2.6 | 0.00 | 0.00 | 0.00 | 73 | 1014.4 |
| 20260506003626 | 43 | 7 | 1.7 | 3.5 | 0.00 | 0.00 | 0.00 | 73 | 1014.3 |
| 20260506002703 | 43 | 346 | 0.9 | 3.5 | 0.00 | 0.00 | 0.00 | 73 | 1014.4 |
| 20260506001803 | 43 | 336 | 0.9 | 3.5 | 0.00 | 0.00 | 0.00 | 73 | 1014.3 |
| 20260506000905 | 43 | 334 | 0.9 | 2.6 | 0.00 | 0.00 | 0.00 | 73 | 1014.5 |
| 20260506000004 | 43 | 358 | 1.7 | 2.6 | 0.00 | 0.00 | 0.00 | 73 | 1014.3 |
| 20260505235403 | 43 | 342 | 0.9 | 2.6 | 0.00 | 0.00 | 0.00 | 73 | 1014.4 |
| 20260505234503 | 43 | 9 | 0.9 | 2.6 | 0.00 | 0.00 | 0.00 | 73 | 1014.4 |
| 20260505233603 | 43 | 342 | 0.9 | 2.6 | 0.00 | 0.00 | 0.00 | 73 | 1014.2 |
| 20260505232703 | 43 | 354 | 0.9 | 5.2 | 0.00 | 0.00 | 0.00 | 73 | 1014.2 |
| 20260505231805 | 44 | 354 | 0.9 | 2.6 | 0.00 | 0.00 | 0.00 | 72 | 1014.2 |
| 20260505230924 | 44 | 344 | 0.0 | 1.7 | 0.00 | 0.00 | 0.00 | 72 | 1014.3 |
| 20260505230003 | 44 | 343 | 0.9 | 2.6 | 0.00 | 0.00 | 0.00 | 71 | 1014.3 |
| 20260505225405 | 44 | 343 | 0.9 | 2.6 | 0.00 | 0.00 | 0.00 | 70 | 1014.6 |
| 20260505224503 | 44 | 345 | 0.9 | 3.5 | 0.00 | 0.00 | 0.00 | 69 | 1014.7 |
| 20260505223603 | 44 | 353 | 1.7 | 7.8 | 0.00 | 0.00 | 0.00 | 69 | 1014.6 |
| 20260505222703 | 44 | 5 | 1.7 | 6.1 | 0.00 | 0.00 | 0.00 | 69 | 1014.6 |
| 20260505221803 | 44 | 348 | 0.9 | 3.5 | 0.00 | 0.00 | 0.00 | 69 | 1014.5 |
| 20260505220903 | 44 | 3 | 1.7 | 6.1 | 0.00 | 0.00 | 0.00 | 69 | 1014.5 |
| 20260505220004 | 44 | 26 | 2.6 | 6.1 | 0.00 | 0.00 | 0.00 | 69 | 1014.6 |
| 20260505215403 | 44 | 11 | 1.7 | 6.1 | 0.00 | 0.00 | 0.00 | 69 | 1014.7 |
| 20260505214525 | 44 | 355 | 0.9 | 3.5 | 0.00 | 0.00 | 0.00 | 69 | 1014.5 |
| 20260505213627 | 44 | 11 | 0.9 | 5.2 | 0.00 | 0.00 | 0.00 | 69 | 1014.4 |
| 20260505212724 | 44 | 19 | 1.7 | 5.2 | 0.00 | 0.00 | 0.00 | 69 | 1014.5 |
| 20260505211824 | 44 | 359 | 1.7 | 6.1 | 0.00 | 0.00 | 0.00 | 69 | 1014.2 |
| 20260505210903 | 44 | 34 | 2.6 | 7.0 | 0.00 | 0.00 | 0.00 | 69 | 1014.3 |
| 20260505210004 | 45 | 35 | 1.7 | 7.0 | 0.00 | 0.00 | 0.00 | 70 | 1014.2 |
| 20260505205425 | 45 | 27 | 1.7 | 7.0 | 0.00 | 0.00 | 0.00 | 70 | 1014.3 |
| 20260505204505 | 45 | 55 | 2.6 | 7.0 | 0.00 | 0.00 | 0.00 | 69 | 1014.1 |
| 20260505203603 | 45 | 55 | 2.6 | 11.3 | 0.00 | 0.00 | 0.00 | 68 | 1014.2 |
| 20260505202704 | 45 | 2 | 1.7 | 7.8 | 0.00 | 0.00 | 0.00 | 68 | 1014.1 |
| 20260505201803 | 45 | 34 | 2.6 | 8.7 | 0.00 | 0.00 | 0.00 | 68 | 1014.1 |
| 20260505200926 | 45 | 36 | 2.6 | 8.7 | 0.00 | 0.00 | 0.00 | 67 | 1013.9 |
| 20260505200004 | 46 | 46 | 2.6 | 7.8 | 0.00 | 0.00 | 0.00 | 68 | 1013.9 |
| 20260505195403 | 46 | 44 | 2.6 | 9.6 | 0.00 | 0.00 | 0.00 | 68 | 1013.8 |
| 20260505194525 | 46 | 40 | 1.7 | 9.6 | 0.00 | 0.00 | 0.00 | 68 | 1013.7 |
| 20260505193624 | 46 | 58 | 2.6 | 7.8 | 0.00 | 0.00 | 0.00 | 68 | 1013.6 |
| 20260505192704 | 46 | 45 | 3.5 | 11.3 | 0.00 | 0.00 | 0.00 | 69 | 1013.7 |
| 20260505191803 | 46 | 64 | 2.6 | 8.7 | 0.00 | 0.00 | 0.00 | 69 | 1013.6 |
| 20260505190903 | 46 | 52 | 2.6 | 7.0 | 0.00 | 0.00 | 0.00 | 71 | 1013.5 |
| 20260505190005 | 47 | 35 | 3.5 | 8.7 | 0.00 | 0.00 | 0.00 | 71 | 1013.6 |
| 20260505185403 | 47 | 55 | 4.3 | 9.6 | 0.00 | 0.00 | 0.00 | 72 | 1013.3 |
| 20260505184503 | 47 | 53 | 3.5 | 9.6 | 0.00 | 0.00 | 0.00 | 70 | 1013.3 |
| 20260505183626 | 47 | 60 | 3.5 | 8.7 | 0.00 | 0.00 | 0.00 | 67 | 1013.3 |
| 20260505182704 | 48 | 51 | 4.3 | 11.3 | 0.00 | 0.00 | 0.00 | 66 | 1013.2 |
| 20260505181805 | 48 | 65 | 3.5 | 9.6 | 0.00 | 0.00 | 0.00 | 67 | 1013.2 |
| 20260505180904 | 49 | 74 | 3.5 | 8.7 | 0.00 | 0.00 | 0.00 | 67 | 1013.1 |
| 20260505180004 | 49 | 77 | 3.5 | 7.8 | 0.00 | 0.00 | 0.00 | 67 | 1013.1 |
| 20260505175404 | 49 | 67 | 3.5 | 12.2 | 0.00 | 0.00 | 0.00 | 67 | 1012.8 |
| 20260505174504 | 49 | 51 | 5.2 | 14.8 | 0.00 | 0.00 | 0.00 | 67 | 1012.8 |
| 20260505173604 | 49 | 41 | 3.5 | 13.0 | 0.00 | 0.00 | 0.00 | 68 | 1012.9 |
| 20260505172725 | 50 | 61 | 5.2 | 13.0 | 0.00 | 0.00 | 0.00 | 67 | 1012.8 |
| 20260505171804 | 50 | 59 | 5.2 | 13.0 | 0.00 | 0.00 | 0.00 | 66 | 1012.8 |
| 20260505170903 | 51 | 63 | 4.3 | 12.2 | 0.00 | 0.00 | 0.00 | 65 | 1012.9 |
| 20260505170004 | 51 | 52 | 3.5 | 7.8 | 0.00 | 0.00 | 0.00 | 63 | 1012.6 |
| 20260505165403 | 51 | 63 | 3.5 | 11.3 | 0.00 | 0.00 | 0.00 | 64 | 1012.6 |
| 20260505164503 | 52 | 88 | 2.6 | 8.7 | 0.00 | 0.00 | 0.00 | 65 | 1012.6 |
| 20260505163604 | 52 | 109 | 2.6 | 8.7 | 0.00 | 0.00 | 0.00 | 64 | 1012.6 |
| 20260505162725 | 53 | 102 | 2.6 | 8.7 | 0.00 | 0.00 | 0.00 | 63 | 1012.5 |
| 20260505161804 | 54 | 152 | 2.6 | 7.0 | 0.00 | 0.00 | 0.00 | 62 | 1012.4 |
| 20260505160903 | 54 | 139 | 2.6 | 7.8 | 0.00 | 0.00 | 0.00 | 63 | 1012.3 |
| 20260505152703 | 55 | 111 | 3.5 | 11.3 | 0.00 | 0.00 | 0.00 | 60 | 1012.4 |
| 20260505151804 | 56 | 75 | 4.3 | 11.3 | 0.00 | 0.00 | 0.00 | 57 | 1012.3 |
| 20260505150904 | 56 | 82 | 4.3 | 9.6 | 0.00 | 0.00 | 0.00 | 55 | 1012.3 |
| 20260505124524 | 56 | 199 | 0.9 | 2.6 | 0.00 | 0.00 | 0.00 | 50 | 1012.3 |
| 20260505123604 | 56 | 203 | 1.7 | 2.6 | 0.00 | 0.00 | 0.00 | 51 | 1012.2 |
| 20260505122703 | 55 | 205 | 1.7 | 3.5 | 0.00 | 0.00 | 0.00 | 53 | 1012.2 |
| 20260505121803 | 55 | 214 | 2.6 | 3.5 | 0.00 | 0.00 | 0.00 | 54 | 1012.2 |
| 20260505120903 | 55 | 228 | 2.6 | 3.5 | 0.00 | 0.00 | 0.00 | 54 | 1012.2 |
| 20260505120024 | 55 | 236 | 2.6 | 3.5 | 0.00 | 0.00 | 0.00 | 54 | 1012.5 |
| 20260505115403 | 55 | 184 | 1.7 | 2.6 | 0.00 | 0.00 | 0.00 | 54 | 1012.3 |
| 20260505114526 | 55 | 192 | 1.7 | 3.5 | 0.00 | 0.00 | 0.00 | 54 | 1012.3 |
| 20260505113624 | 56 | 188 | 1.7 | 5.2 | 0.00 | 0.00 | 0.00 | 55 | 1012.4 |
| 20260505112703 | 54 | 198 | 2.6 | 6.1 | 0.00 | 0.00 | 0.00 | 57 | 1012.4 |
| 20260505111803 | 53 | 196 | 0.9 | 2.6 | 0.00 | 0.00 | 0.00 | 56 | 1012.4 |
| 20260505110925 | 53 | 211 | 0.9 | 2.6 | 0.00 | 0.00 | 0.00 | 53 | 1012.5 |
| 20260505101803 | 50 | 337 | 1.7 | 6.1 | 0.00 | 0.00 | 0.00 | 60 | 1012.6 |
| 20260505100903 | 49 | 337 | 2.6 | 6.1 | 0.00 | 0.00 | 0.00 | 64 | 1012.3 |
| 20260505100004 | 49 | 311 | 3.5 | 8.7 | 0.00 | 0.00 | 0.00 | 64 | 1012.3 |
| 20260505095424 | 49 | 299 | 3.5 | 8.7 | 0.00 | 0.00 | 0.00 | 64 | 1012.1 |